TimeMDT,TemperatureF,Dew PointF,Humidity,Sea Level PressureIn,VisibilityMPH,Wind Direction,Wind SpeedMPH,Gust SpeedMPH,PrecipitationIn,Events,Conditions,WindDirDegrees,DateUTC
12:15 AM,60.8,33.8,36,29.87,10.0,NW,12.7,-,N/A,,Partly Cloudy,310,2013-05-16 06:15:00
12:35 AM,60.8,33.8,36,29.87,10.0,NW,15.0,19.6,N/A,,Mostly Cloudy,310,2013-05-16 06:35:00
12:55 AM,60.8,33.8,36,29.87,10.0,NW,15.0,-,N/A,,Overcast,320,2013-05-16 06:55:00
1:15 AM,60.8,33.8,36,29.87,10.0,NNW,13.8,-,N/A,,Overcast,330,2013-05-16 07:15:00
1:35 AM,60.8,33.8,36,29.87,10.0,NNW,11.5,-,N/A,,Overcast,330,2013-05-16 07:35:00
1:55 AM,60.8,33.8,36,29.88,10.0,NW,9.2,-,N/A,,Overcast,310,2013-05-16 07:55:00
2:15 AM,60.8,33.8,36,29.87,10.0,WNW,9.2,-,N/A,,Mostly Cloudy,300,2013-05-16 08:15:00
2:35 AM,59.0,35.6,42,29.89,10.0,West,11.5,-,N/A,,Overcast,260,2013-05-16 08:35:00
2:55 AM,57.2,35.6,44,29.89,10.0,WNW,11.5,-,N/A,,Mostly Cloudy,300,2013-05-16 08:55:00
3:15 AM,57.2,35.6,44,29.89,10.0,WNW,11.5,-,N/A,,Mostly Cloudy,290,2013-05-16 09:15:00
3:35 AM,57.2,35.6,44,29.90,10.0,WNW,13.8,19.6,N/A,,Overcast,290,2013-05-16 09:35:00
3:55 AM,57.2,35.6,44,29.89,10.0,WNW,15.0,-,N/A,,Overcast,300,2013-05-16 09:55:00
4:15 AM,57.2,35.6,44,29.88,10.0,NW,15.0,-,N/A,,Overcast,310,2013-05-16 10:15:00
4:35 AM,57.2,35.6,44,29.89,10.0,WNW,11.5,-,N/A,,Mostly Cloudy,300,2013-05-16 10:35:00
4:55 AM,57.2,35.6,44,29.89,10.0,WNW,12.7,-,N/A,,Mostly Cloudy,300,2013-05-16 10:55:00
5:15 AM,57.2,35.6,44,29.90,10.0,WNW,9.2,-,N/A,,Overcast,300,2013-05-16 11:15:00
5:35 AM,57.2,35.6,44,29.90,10.0,NW,10.4,16.1,N/A,,Overcast,310,2013-05-16 11:35:00
5:55 AM,57.2,35.6,44,29.91,10.0,WNW,13.8,-,N/A,,Overcast,300,2013-05-16 11:55:00
6:15 AM,55.4,37.4,51,29.90,10.0,WNW,13.8,-,N/A,,Overcast,300,2013-05-16 12:15:00
6:35 AM,55.4,37.4,51,29.91,10.0,WNW,12.7,-,N/A,,Overcast,300,2013-05-16 12:35:00
6:55 AM,55.4,35.6,47,29.91,10.0,NW,15.0,18.4,N/A,,Overcast,310,2013-05-16 12:55:00
7:15 AM,55.4,35.6,47,29.92,10.0,NW,13.8,-,N/A,,Overcast,310,2013-05-16 13:15:00
7:35 AM,55.4,35.6,47,29.93,10.0,NW,12.7,-,N/A,,Overcast,310,2013-05-16 13:35:00
7:55 AM,55.4,35.6,47,29.93,10.0,WNW,12.7,-,N/A,,Overcast,300,2013-05-16 13:55:00
8:15 AM,55.4,35.6,47,29.93,10.0,NW,15.0,-,N/A,,Overcast,310,2013-05-16 14:15:00
8:35 AM,55.4,37.4,51,29.94,10.0,WNW,13.8,19.6,N/A,,Overcast,300,2013-05-16 14:35:00
8:55 AM,55.4,37.4,51,29.93,10.0,WNW,13.8,-,N/A,,Overcast,300,2013-05-16 14:55:00
9:15 AM,55.4,37.4,51,29.94,8.0,WNW,12.7,-,N/A,,Overcast,290,2013-05-16 15:15:00
9:35 AM,55.4,37.4,51,29.94,10.0,WNW,12.7,-,N/A,,Overcast,290,2013-05-16 15:35:00
9:55 AM,57.2,37.4,48,29.94,7.0,WNW,12.7,-,N/A,,Mostly Cloudy,300,2013-05-16 15:55:00
10:15 AM,59.0,37.4,45,29.93,5.0,WNW,12.7,-,N/A,,Mostly Cloudy,300,2013-05-16 16:15:00
10:35 AM,59.0,37.4,45,29.93,4.0,NW,13.8,-,N/A,,Overcast,320,2013-05-16 16:35:00
10:55 AM,60.8,37.4,42,29.93,1.8,WNW,11.5,16.1,N/A,,Overcast,300,2013-05-16 16:55:00
11:15 AM,60.8,39.2,45,29.93,10.0,WNW,10.4,-,N/A,,Overcast,300,2013-05-16 17:15:00
11:35 AM,62.6,37.4,39,29.93,10.0,NW,6.9,-,N/A,,Scattered Clouds,320,2013-05-16 17:35:00
11:55 AM,62.6,37.4,39,29.92,10.0,NW,10.4,-,N/A,,Clear,320,2013-05-16 17:55:00
12:15 PM,62.6,37.4,39,29.92,10.0,NW,9.2,-,N/A,,Clear,310,2013-05-16 18:15:00
12:35 PM,64.4,37.4,37,29.91,10.0,WNW,8.1,-,N/A,,Clear,300,2013-05-16 18:35:00
1:15 PM,64.4,37.4,37,29.90,2.5,WSW,4.6,-,N/A,,Clear,250,2013-05-16 19:15:00
1:35 PM,64.4,37.4,37,29.90,10.0,WNW,5.8,-,N/A,,Clear,290,2013-05-16 19:35:00
1:55 PM,64.4,37.4,37,29.89,10.0,North,3.5,-,N/A,,Clear,10,2013-05-16 19:55:00
2:15 PM,66.2,35.6,32,29.89,10.0,Calm,Calm,-,N/A,,Clear,0,2013-05-16 20:15:00
2:35 PM,66.2,37.4,35,29.88,10.0,West,8.1,-,N/A,,Clear,270,2013-05-16 20:35:00
2:55 PM,66.2,37.4,35,29.87,10.0,WNW,6.9,-,N/A,,Clear,300,2013-05-16 20:55:00
3:15 PM,66.2,35.6,32,29.86,10.0,NNW,11.5,-,N/A,,Clear,330,2013-05-16 21:15:00
4:15 PM,66.2,37.4,35,29.85,10.0,NW,4.6,-,N/A,,Clear,320,2013-05-16 22:15:00
4:35 PM,66.2,35.6,32,29.84,10.0,Calm,Calm,-,N/A,,Partly Cloudy,0,2013-05-16 22:35:00
4:55 PM,66.2,35.6,32,29.84,9.0,North,8.1,-,N/A,,Scattered Clouds,360,2013-05-16 22:55:00
5:15 PM,66.2,37.4,35,29.84,10.0,NNW,3.5,-,N/A,,Partly Cloudy,330,2013-05-16 23:15:00
5:35 PM,66.2,35.6,32,29.83,10.0,Calm,Calm,-,N/A,,Scattered Clouds,0,2013-05-16 23:35:00
5:55 PM,66.2,35.6,32,29.83,10.0,Calm,Calm,-,N/A,,Overcast,0,2013-05-16 23:55:00
6:15 PM,66.2,37.4,35,29.83,10.0,East,3.5,-,N/A,,Overcast,100,2013-05-17 00:15:00
6:35 PM,66.2,37.4,35,29.83,10.0,Calm,Calm,-,N/A,,Scattered Clouds,0,2013-05-17 00:35:00
6:55 PM,66.2,35.6,32,29.82,10.0,Calm,Calm,-,N/A,,Partly Cloudy,0,2013-05-17 00:55:00
7:15 PM,64.4,37.4,37,29.82,10.0,SSW,3.5,-,N/A,,Mostly Cloudy,210,2013-05-17 01:15:00
7:35 PM,66.2,35.6,32,29.82,10.0,SSW,4.6,-,N/A,,Mostly Cloudy,200,2013-05-17 01:35:00
7:55 PM,64.4,35.6,34,29.82,10.0,WNW,6.9,-,N/A,,Overcast,290,2013-05-17 01:55:00
8:15 PM,64.4,35.6,34,29.82,10.0,West,4.6,-,N/A,,Mostly Cloudy,270,2013-05-17 02:15:00
8:35 PM,64.4,35.6,34,29.82,10.0,WSW,3.5,-,N/A,,Mostly Cloudy,240,2013-05-17 02:35:00
8:55 PM,64.4,35.6,34,29.82,10.0,SSW,4.6,-,N/A,,Overcast,210,2013-05-17 02:55:00
9:15 PM,62.6,42.8,48,29.83,10.0,SSW,6.9,-,N/A,,Overcast,210,2013-05-17 03:15:00
9:35 PM,62.6,41.0,45,29.83,10.0,SSW,8.1,-,N/A,,Overcast,210,2013-05-17 03:35:00
9:55 PM,62.6,41.0,45,29.84,10.0,SSW,4.6,-,N/A,,Overcast,200,2013-05-17 03:55:00
10:15 PM,62.6,41.0,45,29.84,10.0,SSW,4.6,-,N/A,,Overcast,210,2013-05-17 04:15:00
10:35 PM,60.8,42.8,52,29.85,10.0,West,5.8,-,N/A,,Overcast,260,2013-05-17 04:35:00
10:55 PM,60.8,42.8,52,29.85,10.0,North,8.1,-,N/A,,Overcast,360,2013-05-17 04:55:00
11:15 PM,60.8,39.2,45,29.85,10.0,North,9.2,-,N/A,,Overcast,360,2013-05-17 05:15:00
11:35 PM,59.0,39.2,48,29.85,10.0,North,5.8,-,N/A,,Overcast,10,2013-05-17 05:35:00
11:55 PM,59.0,39.2,48,29.85,10.0,NNE,8.1,-,N/A,,Overcast,30,2013-05-17 05:55:00